HISPASAT 30W-5

Last updated on Thu Sep 10 2026 00:02:56 GMT+0000 (Coordinated Universal Time)

1 37264U 10070A 26252.36579314 -.00000237 00000+0 00000+0 0 9996 2 37264 0.0289 122.1298 0005564 44.3565 283.6271 1.00272089 54024
UTC large
Height (km)
Speed (km/s)
/
Latitude / Longitude
Inclination (degrees)
Orbital Period (minutes)
Azimuth
Elevation
Range (km)
Doppler Factor

Next 0 passes for location: London (51.5072 / 0.1276)

No passes found over London.
HISPASAT 30W-5